Adana Incirlik AFB, Turkey

8:21 PM +03 on April 30, 2017 (GMT +0300)
Incirlik Air Base

Weather History for LTAG - October, 2012

Change the Weather History Date:

Monday, October 1, 2012

  Actual Average Record
Temperature  
Mean Temperature 84 °F -  
Max Temperature 94 °F 84 °F 98 °F (1999)
Min Temperature 74 °F 60 °F 56 °F (2014)
Cooling Degree Days 19    
Growing Degree Days 34 (Base 50)    
Moisture  
Dew Point 64 °F    
Average Humidity 56    
Maximum Humidity 83    
Minimum Humidity 20    
Precipitation  
Precipitation 0.00 in - - ()
Sea Level Pressure  
Sea Level Pressure 30.00 in    
Wind  
Wind Speed 4 mph ()    
Max Wind Speed 12 mph    
Max Gust Speed -    
Visibility 6.2 miles    
Events Rain    
Averages and records for this station are not official NWS values.
T = Trace of Precipitation, MM = Missing Value Source: Averaged Metar Reports

Daily Weather History Graph

Daily Weather History Graph

Search for Another Location

Airport or City:

Trip Planner

Search our weather history database for the weather conditions in past years. The results will help you decide how hot, cold, wet, or windy it might be!

Date:

Astronomy

Oct. 01, 2012 Rise Set
Actual Time 6:33 AM EEST 6:21 PM EEST
Civil Twilight 6:07 AM EEST 6:47 PM EEST
Nautical Twilight 5:37 AM EEST 7:17 PM EEST
Astronomical Twilight 5:07 AM EEST 7:47 PM EEST
Moon 6:50 PM EEST (10/1) 7:39 AM EEST (10/1)
Length of Visible Light 12h 39m
Length of Day
11h 47m
Full, 99% of the Moon is Illuminated
Oct 1
Full
Oct 8
Last Quarter
Oct 15
New
Oct 22
First Quarter
Oct 29
Full

Hourly Weather History & Observations

Time (EEST) Temp. Heat Index Dew Point Humidity Pressure Visibility Wind Dir Wind Speed Gust Speed Precip Events Conditions
12:20 AM 77.0 °F - 69.8 °F 78% 29.98 in 6.2 mi North 3.5 mph - N/A   Scattered Clouds
12:50 AM 77.0 °F - 69.8 °F 78% 29.98 in 6.2 mi North 3.5 mph - N/A   Scattered Clouds
1:20 AM 77.0 °F - 68.0 °F 74% 29.98 in 6.2 mi North 9.2 mph - N/A   Scattered Clouds
1:50 AM 75.2 °F - 68.0 °F 78% 29.98 in 6.2 mi North 10.4 mph - N/A   Scattered Clouds
2:20 AM 75.2 °F - 66.2 °F 73% 29.98 in 6.2 mi North 8.1 mph - N/A   Scattered Clouds
2:50 AM 77.0 °F - 66.2 °F 69% 29.98 in 6.2 mi Calm Calm - N/A   Scattered Clouds
3:00 AM 76 °F - 67 °F 65% 29.97 in 6 mi Calm Calm - -   Partly Cloudy
3:20 AM 75.2 °F - 66.2 °F 73% 29.98 in 6.2 mi North 9.2 mph - N/A   Scattered Clouds
3:50 AM 77.0 °F - 66.2 °F 69% 29.98 in 6.2 mi NNW 5.8 mph - N/A   Scattered Clouds
4:20 AM 75.2 °F - 66.2 °F 73% 29.98 in 6.2 mi North 9.2 mph - N/A   Scattered Clouds
4:50 AM 75.2 °F - 69.8 °F 83% 29.98 in 6.2 mi SSW 5.8 mph - N/A   Mostly Cloudy
5:20 AM 77.0 °F - 68.0 °F 74% 30.01 in 6.2 mi NW 1.2 mph - N/A   Mostly Cloudy
5:50 AM 77.0 °F - 68.0 °F 74% 30.01 in 6.2 mi NNW 1.2 mph - N/A   Mostly Cloudy
6:20 AM 75.2 °F - 68.0 °F 78% 30.01 in 6.2 mi North 3.5 mph - N/A   Mostly Cloudy
6:50 AM 75.2 °F - 68.0 °F 78% 30.01 in 6.2 mi NNW 4.6 mph - N/A   Mostly Cloudy
7:20 AM 75.2 °F - 68.0 °F 78% 30.01 in 6.2 mi North 8.1 mph - N/A   Mostly Cloudy
7:50 AM 77.0 °F - 66.2 °F 69% 30.01 in 6.2 mi North 3.5 mph - N/A   Mostly Cloudy
8:20 AM 78.8 °F - 66.2 °F 65% 30.01 in 6.2 mi East 5.8 mph - N/A   Mostly Cloudy
8:50 AM 80.6 °F 82.7 °F 66.2 °F 61% 30.04 in 6.2 mi West 2.3 mph - N/A   Mostly Cloudy
9:00 AM 80 °F - 66 °F 54% 30.03 in 6 mi West 2.3 mph - -   Partly Cloudy
9:20 AM 80.6 °F 82.7 °F 66.2 °F 61% 30.04 in 6.2 mi SE 2.3 mph - N/A   Mostly Cloudy
9:50 AM 80.6 °F 82.7 °F 66.2 °F 61% 30.04 in 6.2 mi North 2.3 mph - N/A Rain Light Rain Showers
10:20 AM 84.2 °F 86.6 °F 66.2 °F 55% 30.01 in 6.2 mi NNW 2.3 mph - N/A   Mostly Cloudy
10:50 AM 87.8 °F 87.6 °F 60.8 °F 40% 30.01 in 6.2 mi NNW 4.6 mph - N/A   Mostly Cloudy
11:20 AM 87.8 °F 87.1 °F 59.0 °F 38% 30.01 in 6.2 mi ENE 2.3 mph - N/A   Mostly Cloudy
11:50 AM 89.6 °F 88.1 °F 57.2 °F 33% 30.01 in 6.2 mi Calm Calm - N/A   Mostly Cloudy
12:20 PM 87.8 °F 87.6 °F 60.8 °F 40% 29.98 in 6.2 mi Calm Calm - N/A   Mostly Cloudy
12:50 PM 89.6 °F 88.9 °F 59.0 °F 36% 29.98 in 6.2 mi Calm Calm - N/A   Mostly Cloudy
1:20 PM 91.4 °F 89.9 °F 57.2 °F 31% 29.98 in 6.2 mi Calm Calm - N/A   Mostly Cloudy
1:50 PM 91.4 °F 89.9 °F 57.2 °F 31% 29.98 in 6.2 mi Calm Calm - N/A   Mostly Cloudy
2:20 PM 95.0 °F 94.4 °F 59.0 °F 30% 30.01 in 6.2 mi SSW 4.6 mph - N/A   Mostly Cloudy
2:50 PM 95.0 °F 93.7 °F 57.2 °F 28% 29.98 in 6.2 mi SW 10.4 mph - N/A   Mostly Cloudy
3:00 PM 94 °F - 58 °F 20% 29.98 in 6 mi SW 10.4 mph - -   Partly Cloudy
3:20 PM 93.2 °F 93.3 °F 60.8 °F 34% 29.98 in 6.2 mi West 11.5 mph - N/A   Mostly Cloudy
3:50 PM 91.4 °F 91.4 °F 60.8 °F 36% 29.98 in 6.2 mi SW 3.5 mph - N/A   Mostly Cloudy
4:20 PM 91.4 °F 90.7 °F 59.0 °F 34% 29.98 in 6.2 mi WSW 3.5 mph - N/A   Mostly Cloudy
4:50 PM 91.4 °F 90.7 °F 59.0 °F 34% 29.98 in 6.2 mi SSW 3.5 mph - N/A   Mostly Cloudy
5:20 PM 91.4 °F 90.7 °F 59.0 °F 34% 29.98 in 6.2 mi Calm Calm - N/A   Mostly Cloudy
5:50 PM 89.6 °F 89.5 °F 60.8 °F 38% 29.98 in 6.2 mi SSE 3.5 mph - N/A   Mostly Cloudy
6:20 PM 87.8 °F 87.6 °F 60.8 °F 40% 29.98 in 6.2 mi Calm Calm - N/A   Mostly Cloudy
6:50 PM 87.8 °F 87.1 °F 59.0 °F 38% 29.98 in 6.2 mi Calm Calm - N/A   Mostly Cloudy
7:20 PM 86.0 °F 86.1 °F 60.8 °F 43% 30.01 in 6.2 mi Calm Calm - N/A   Mostly Cloudy
7:50 PM 84.2 °F 85.6 °F 64.4 °F 51% 30.01 in 6.2 mi Calm Calm - N/A   Mostly Cloudy
8:20 PM 82.4 °F 85.4 °F 68.0 °F 62% 30.04 in 6.2 mi SSE 5.8 mph - N/A   Mostly Cloudy
8:50 PM 84.2 °F 88.4 °F 69.8 °F 62% 30.01 in 6.2 mi SSW 2.3 mph - N/A   Mostly Cloudy
9:00 PM 83 °F - 69 °F 54% 30.00 in 6 mi SSW 2.3 mph - -   Scattered Clouds
9:20 PM 82.4 °F 85.4 °F 68.0 °F 62% 30.01 in 6.2 mi Calm Calm - N/A   Mostly Cloudy
9:50 PM 80.6 °F 83.2 °F 68.0 °F 65% 30.01 in 6.2 mi NE 2.3 mph - N/A   Mostly Cloudy
10:20 PM 78.8 °F - 68.0 °F 69% 29.98 in 6.2 mi North 2.3 mph - N/A   Mostly Cloudy
10:50 PM 77.0 °F - 66.2 °F 69% 29.98 in 6.2 mi ENE 2.3 mph - N/A   Mostly Cloudy
11:20 PM 78.8 °F - 66.2 °F 65% 29.98 in 6.2 mi NE 2.3 mph - N/A   Mostly Cloudy
11:50 PM 77.0 °F - 64.4 °F 65% 29.98 in 6.2 mi NE 2.3 mph - N/A   Mostly Cloudy